Weather History for Ibiza, Spain

Change the Weather History Date:

Tuesday, January 22, 2013

  Actual Average Record
Temperature  
Mean Temperature 50 °F -  
Max Temperature 59 °F 57 °F 68 °F (1997)
Min Temperature 41 °F 45 °F 33 °F (2011)
Degree Days  
Heating Degree Days 15    
Moisture  
Dew Point 39 °F    
Average Humidity 62    
Maximum Humidity 93    
Minimum Humidity 36    
Precipitation  
Precipitation 0.01 in 0.04 in - ()
Sea Level Pressure  
Sea Level Pressure 29.80 in    
Wind  
Wind Speed 13 mph ()    
Max Wind Speed 32 mph    
Max Gust Speed 48 mph    
Visibility 6.4 miles    
Events Rain    
Averages and records for this station are not official NWS values.
T = Trace of Precipitation, MM = Missing Value Source: Averaged Metar Reports

Daily Weather History Graph

Daily Weather History Graph

Search for Another Location

Airport:

Trip Planner

Search our weather history database for the weather conditions in past years. The results will help you decide how hot, cold, wet, or windy it might be!

Date:

Astronomy

Jan. 22, 2013 Rise Set
Actual Time 8:08 AM CET 6:04 PM CET
Civil Twilight 7:39 AM CET 6:33 PM CET
Nautical Twilight 7:06 AM CET 7:05 PM CET
Astronomical Twilight 6:35 AM CET 7:37 PM CET
Moon 2:16 PM CET (1/22) 4:16 AM CET (1/22)
Length of Visible Light 10h 53m
Length of Day
9h 56m
Waxing Gibbous, 80% of the Moon is Illuminated
Jan 22
Waxing Gibbous
Jan 27
Full
Feb 3
Last Quarter
Feb 10
New
Feb 17
First Quarter

Hourly Weather History & Observations

Time (CET) Temp. Windchill Dew Point Humidity Pressure Visibility Wind Dir Wind Speed Gust Speed Precip Events Conditions
12:00 AM 46.4 °F 44.3 °F 42.8 °F 87% 29.92 in - West 4.6 mph - N/A   Clear
1:00 AM 50 °F - 40 °F 60% 29.91 in 6 mi West 8.1 mph - -   Scattered Clouds
1:00 AM 51.8 °F - 42.8 °F 71% 29.89 in 6.2 mi West 6.9 mph - N/A   Partly Cloudy
4:00 AM 44.6 °F - 37.4 °F 76% 29.89 in - Variable 1.2 mph - N/A   Clear
5:30 AM 42.8 °F - 37.4 °F 81% 29.89 in - Calm Calm - N/A   Clear
6:00 AM 44.6 °F - 39.2 °F 81% 29.89 in - Calm Calm - N/A   Clear
6:30 AM 46.4 °F 41.9 °F 37.4 °F 71% 29.89 in - WSW 9.2 mph - N/A   Clear
7:00 AM 48 °F - 36 °F 52% 29.89 in 6 mi WSW 12.7 mph - -  
7:00 AM 50.0 °F - 37.4 °F 62% 29.89 in - WSW 11.5 mph - N/A   Clear
7:30 AM 48.2 °F - 37.4 °F 66% 29.89 in - WSW 11.5 mph - N/A   Clear
8:00 AM 50.0 °F - 33.8 °F 54% 29.89 in 6.2 mi WSW 11.5 mph - N/A   Partly Cloudy
8:30 AM 50.0 °F - 35.6 °F 58% 29.89 in 6.2 mi WSW 10.4 mph - N/A   Partly Cloudy
9:00 AM 51.8 °F - 33.8 °F 50% 29.89 in 6.2 mi WSW 10.4 mph - N/A   Partly Cloudy
9:30 AM 51.8 °F - 33.8 °F 50% 29.89 in 6.2 mi WSW 17.3 mph - N/A   Partly Cloudy
10:00 AM 53.6 °F - 33.8 °F 47% 29.89 in 6.2 mi SW 18.4 mph - N/A   Partly Cloudy
10:30 AM 53.6 °F - 33.8 °F 47% 29.89 in 6.2 mi WSW 20.7 mph - N/A   Partly Cloudy
11:00 AM 55.4 °F - 35.6 °F 47% 29.89 in 6.2 mi SW 18.4 mph - N/A   Partly Cloudy
11:30 AM 57.2 °F - 35.6 °F 44% 29.89 in 6.2 mi SW 23.0 mph - N/A   Partly Cloudy
12:00 PM 55.4 °F - 35.6 °F 47% 29.89 in 6.2 mi SW 21.9 mph - N/A   Partly Cloudy
12:30 PM 57.2 °F - 35.6 °F 44% 29.86 in 6.2 mi SW 23.0 mph - N/A   Partly Cloudy
1:00 PM 58 °F - 38 °F 36% 29.86 in 12 mi SW 26.5 mph - -   Scattered Clouds
1:00 PM 57.2 °F - 39.2 °F 51% 29.86 in 6.2 mi SW 24.2 mph - N/A   Partly Cloudy
1:30 PM 59.0 °F - 37.4 °F 45% 29.83 in 6.2 mi SW 23.0 mph - N/A   Partly Cloudy
2:00 PM 57.2 °F - 41.0 °F 55% 29.80 in 6.2 mi SSW 20.7 mph - N/A   Partly Cloudy
2:30 PM 57.2 °F - 39.2 °F 51% 29.80 in 6.2 mi SSW 18.4 mph - N/A   Partly Cloudy
3:00 PM 55.4 °F - 37.4 °F 51% 29.77 in 6.2 mi SW 20.7 mph 32.2 mph N/A   Partly Cloudy
3:30 PM 57.2 °F - 41.0 °F 55% 29.77 in 6.2 mi SSW 23.0 mph 34.5 mph N/A   Partly Cloudy
4:00 PM 55.4 °F - 42.8 °F 63% 29.74 in 6.2 mi SSW 21.9 mph - N/A   Partly Cloudy
4:30 PM 55.4 °F - 44.6 °F 67% 29.71 in 6.2 mi SSW 19.6 mph - N/A   Partly Cloudy
5:00 PM 55.4 °F - 44.6 °F 67% 29.71 in 6.2 mi SSW 20.7 mph - N/A   Partly Cloudy
5:30 PM 55.4 °F - 46.4 °F 72% 29.68 in 6.2 mi SSW 20.7 mph - N/A   Partly Cloudy
6:00 PM 55.4 °F - 46.4 °F 72% 29.68 in 6.2 mi SSW 20.7 mph - N/A   Partly Cloudy
6:30 PM 55.4 °F - 46.4 °F 72% 29.68 in 6.2 mi SSW 21.9 mph 34.5 mph N/A   Scattered Clouds
7:00 PM 53 °F - 44 °F 64% 29.71 in 9 mi SW 31.1 mph - -   Overcast
7:00 PM 53.6 °F - 42.8 °F 67% 29.68 in 6.2 mi SSW 28.8 mph 40.3 mph N/A Rain Light Rain
7:12 PM 46.4 °F 37.5 °F 44.6 °F 93% 29.71 in 6.2 mi WSW 27.6 mph 48.3 mph N/A Rain Rain
7:30 PM 48.2 °F - 46.4 °F 93% 29.71 in 6.2 mi WSW 23.0 mph 35.7 mph N/A Rain Rain
8:00 PM 50.0 °F - 46.4 °F 87% 29.68 in 6.2 mi West 12.7 mph - N/A   Scattered Clouds
8:30 PM 51.8 °F - 44.6 °F 76% 29.65 in 6.2 mi WSW 18.4 mph 38.0 mph N/A   Partly Cloudy
9:00 PM 51.8 °F - 35.6 °F 54% 29.65 in 6.2 mi WSW 29.9 mph - N/A   Partly Cloudy
9:30 PM 51.8 °F - 35.6 °F 54% 29.65 in 6.2 mi WSW 29.9 mph - N/A   Partly Cloudy
10:00 PM 50.0 °F - 35.6 °F 58% 29.65 in 6.2 mi WSW 32.2 mph 47.2 mph N/A   Partly Cloudy
10:30 PM 50.0 °F - 35.6 °F 58% 29.65 in 6.2 mi WSW 27.6 mph 46.0 mph N/A   Partly Cloudy
11:00 PM 50.0 °F - 35.6 °F 58% 29.65 in 6.2 mi West 25.3 mph 47.2 mph N/A   Partly Cloudy
11:30 PM 50.0 °F - 33.8 °F 54% 29.68 in - West 26.5 mph 44.9 mph N/A   Clear